Location: Dammartin
(48.9032°N, 1.6195°E)
Time: 13:48:25
(UTC+00:00)

Cosmos 2322 Rocket - Pass Details

Date: 03 February 2023
Orbit: 831 x 852 km, 71.0° (Epoch: 29 March)

Event Time Altitude Azimuth Distance (km) Brightness Sun altitude
Rises 20:00:11 0° 247° (WSW) 3,370 6.1 -30.7°
Reaches altitude 10° 20:03:01 10° 260° (W) 2,440 5.4 -31.2°
Maximum altitude 20:07:38 26° 316° (NW) 1,604 4.1 -31.9°
Enters shadow 20:10:44 16° 359° (N) 2,033 4.3 -32.4°
